PU5FJO-13 Weather Reports


time (UTC)temp
C
wind
direction
speed
KPH
gust
KPH
rain 1hr
cm
rain 24hr
cm
rain mn
cm
humidity
%
barometer
mb
20260508034616 22 0.0 0.0 0.00 0.00 0.00 81 1007.2
20260508033616 22 0.0 0.0 0.00 0.00 0.00 81 1007.3
20260508032616 22 0.0 0.0 0.00 0.00 0.00 82 1007.6
20260508031616 22 0.0 0.0 0.00 0.00 0.00 82 1007.7
20260508030616 23 0.0 0.0 0.00 0.00 0.00 80 1007.7
20260508025616 22 0.0 0.0 0.00 0.00 0.00 81 1007.8
20260508024616 22 0.0 0.0 0.00 0.00 0.00 82 1007.9
20260508023616 22 0.0 0.0 0.00 0.00 0.00 82 1007.9
20260508022616 22 0.0 0.0 0.00 0.00 0.00 82 1007.9
20260508021616 22 0.0 0.0 0.00 0.00 0.00 82 1008.2
20260508020616 22 0.0 0.0 0.00 0.00 0.00 82 1008.3
20260508015616 22 0.0 0.0 0.00 0.00 0.00 82 1008.3
20260508014616 22 0.0 0.0 0.00 0.00 0.00 82 1008.2
20260508013616 22 0.0 0.0 0.00 0.00 0.00 83 1008.3
20260508012616 22 0.0 0.0 0.00 0.00 0.00 82 1008.3
20260508011616 22 0.0 0.0 0.00 0.00 0.00 82 1008.3
20260508010616 22 0.0 0.0 0.00 0.00 0.00 82 1008.2
20260508005616 22 0.0 0.0 0.00 0.00 0.00 83 1008.4
20260508004616 22 0.0 0.0 0.00 0.00 0.00 83 1008.5
20260508003616 22 0.0 0.0 0.00 0.00 0.00 83 1008.6
20260508002616 22 0.0 0.0 0.00 0.00 0.00 83 1008.7
20260508001616 22 0.0 0.0 0.00 0.00 0.00 84 1008.8
20260508000616 22 0.0 0.0 0.00 0.00 0.00 84 1008.9
20260507235616 22 0.0 0.0 0.00 0.00 0.00 84 1009.0
20260507234616 22 0.0 0.0 0.00 0.00 0.00 83 1009.0
20260507233616 22 0.0 0.0 0.00 0.00 0.00 83 1008.9
20260507232616 22 0.0 0.0 0.00 0.00 0.00 84 1009.0
20260507231616 22 0.0 0.0 0.00 0.00 0.00 84 1009.2
20260507230616 22 0.0 0.0 0.00 0.00 0.00 84 1009.2
20260507225616 22 0.0 0.0 0.00 0.00 0.00 84 1009.1
20260507224616 22 0.0 0.0 0.00 0.00 0.00 83 1009.1
20260507223616 22 0.0 0.0 0.00 0.00 0.00 83 1009.2
20260507222616 22 0.0 0.0 0.00 0.00 0.00 83 1009.2
20260507221616 22 0.0 0.0 0.00 0.00 0.00 83 1009.0
20260507220616 22 0.0 0.0 0.00 0.00 0.00 83 1008.9
20260507215617 22 0.0 0.0 0.00 0.00 0.00 83 1008.8
20260507214616 22 0.0 0.0 0.00 0.00 0.00 82 1008.9
20260507213616 23 0.0 0.0 0.00 0.00 0.00 82 1008.9
20260507212616 23 0.0 0.0 0.00 0.00 0.00 81 1009.0
20260507211616 23 0.0 0.0 0.00 0.00 0.00 81 1008.9
20260507210616 23 0.0 0.0 0.00 0.00 0.00 81 1008.8
20260507205616 23 0.0 0.0 0.00 0.00 0.00 80 1008.6
20260507204616 23 0.0 0.0 0.00 0.00 0.00 80 1008.7
20260507203616 23 0.0 0.0 0.00 0.00 0.00 79 1008.4
20260507202615 23 0.0 0.0 0.00 0.00 0.00 78 1008.4
20260507201617 23 0.0 0.0 0.00 0.00 0.00 78 1008.5
20260507200616 23 0.0 0.0 0.00 0.00 0.00 76 1008.3
20260507195616 24 0.0 0.0 0.00 0.00 0.00 75 1008.3
20260507194615 24 0.0 0.0 0.00 0.00 0.00 75 1008.3
20260507193615 24 0.0 0.0 0.00 0.00 0.00 73 1008.1
20260507192615 24 0.0 0.0 0.00 0.00 0.00 75 1008.0
20260507191615 24 0.0 0.0 0.00 0.00 0.00 75 1008.2
20260507190615 24 0.0 0.0 0.00 0.00 0.00 74 1008.3
20260507185615 24 0.0 0.0 0.00 0.00 0.00 74 1008.4
20260507184615 24 0.0 0.0 0.00 0.00 0.00 74 1008.3
20260507183615 24 0.0 0.0 0.00 0.00 0.00 73 1008.2
20260507182615 25 0.0 0.0 0.00 0.00 0.00 71 1008.2
20260507181616 26 0.0 0.0 0.00 0.00 0.00 68 1008.1
20260507180615 26 0.0 0.0 0.00 0.00 0.00 67 1008.2
20260507175615 26 0.0 0.0 0.00 0.00 0.00 67 1008.3
20260507174615 25 0.0 0.0 0.00 0.00 0.00 68 1008.5
20260507173615 25 0.0 0.0 0.00 0.00 0.00 69 1008.5
20260507172615 25 0.0 0.0 0.00 0.00 0.00 69 1008.5
20260507171615 25 0.0 0.0 0.00 0.00 0.00 71 1008.7
20260507170615 25 0.0 0.0 0.00 0.00 0.00 70 1008.8
20260507165615 25 0.0 0.0 0.00 0.00 0.00 68 1009.0
20260507164615 25 0.0 0.0 0.00 0.00 0.00 69 1009.2
20260507163615 25 0.0 0.0 0.00 0.00 0.00 69 1009.5
20260507162615 25 0.0 0.0 0.00 0.00 0.00 70 1009.8
20260507161615 25 0.0 0.0 0.00 0.00 0.00 70 1010.0
20260507160615 25 0.0 0.0 0.00 0.00 0.00 68 1010.3
20260507155618 25 0.0 0.0 0.00 0.00 0.00 69 1010.3
20260507154615 25 0.0 0.0 0.00 0.00 0.00 70 1010.8
20260507153615 25 0.0 0.0 0.00 0.00 0.00 71 1011.1
20260507152615 24 0.0 0.0 0.00 0.00 0.00 72 1011.4
20260507151615 24 0.0 0.0 0.00 0.00 0.00 72 1011.6
20260507150618 25 0.0 0.0 0.00 0.00 0.00 70 1011.7
20260507145615 25 0.0 0.0 0.00 0.00 0.00 70 1011.8
20260507144615 25 0.0 0.0 0.00 0.00 0.00 70 1012.0
20260507143615 25 0.0 0.0 0.00 0.00 0.00 71 1012.2
20260507142615 24 0.0 0.0 0.00 0.00 0.00 72 1012.5
20260507141615 24 0.0 0.0 0.00 0.00 0.00 74 1012.5
20260507140615 23 0.0 0.0 0.00 0.00 0.00 76 1012.8
20260507135615 23 0.0 0.0 0.00 0.00 0.00 76 1012.9
20260507134615 24 0.0 0.0 0.00 0.00 0.00 74 1012.9
20260507133615 24 0.0 0.0 0.00 0.00 0.00 75 1013.1
20260507132615 23 0.0 0.0 0.00 0.00 0.00 76 1013.2
20260507131615 24 0.0 0.0 0.00 0.00 0.00 76 1013.6
20260507130615 23 0.0 0.0 0.00 0.00 0.00 77 1013.7
20260507125615 23 0.0 0.0 0.00 0.00 0.00 79 1013.8
20260507124615 23 0.0 0.0 0.00 0.00 0.00 81 1014.0
20260507123615 23 0.0 0.0 0.00 0.00 0.00 80 1014.0
20260507122615 23 0.0 0.0 0.00 0.00 0.00 80 1014.0
20260507121615 23 0.0 0.0 0.00 0.00 0.00 81 1014.3
20260507120615 22 0.0 0.0 0.00 0.00 0.00 82 1014.3
20260507115615 22 0.0 0.0 0.00 0.00 0.00 84 1014.3
20260507114615 22 0.0 0.0 0.00 0.00 0.00 83 1014.4
20260507113615 22 0.0 0.0 0.00 0.00 0.00 83 1014.5
20260507112615 22 0.0 0.0 0.00 0.00 0.00 85 1014.4
20260507111615 22 0.0 0.0 0.00 0.00 0.00 85 1014.4
20260507110615 22 0.0 0.0 0.00 0.00 0.00 86 1014.5
20260507105615 22 0.0 0.0 0.00 0.00 0.00 86 1014.4
20260507104615 22 0.0 0.0 0.00 0.00 0.00 86 1014.3
20260507103615 21 0.0 0.0 0.00 0.00 0.00 86 1014.3
20260507102615 21 0.0 0.0 0.00 0.00 0.00 86 1014.5
20260507101615 21 0.0 0.0 0.00 0.00 0.00 87 1014.4
20260507100615 21 0.0 0.0 0.00 0.00 0.00 88 1014.3
20260507095615 21 0.0 0.0 0.00 0.00 0.00 88 1014.2
20260507094615 21 0.0 0.0 0.00 0.00 0.00 88 1014.2
20260507093615 21 0.0 0.0 0.00 0.00 0.00 88 1014.4
20260507092615 21 0.0 0.0 0.00 0.00 0.00 88 1014.5
20260507091615 21 0.0 0.0 0.00 0.00 0.00 87 1014.4
20260507090615 21 0.0 0.0 0.00 0.00 0.00 87 1014.3
20260507085615 21 0.0 0.0 0.00 0.00 0.00 87 1014.1
20260507084615 21 0.0 0.0 0.00 0.00 0.00 87 1014.1
20260507083615 21 0.0 0.0 0.00 0.00 0.00 87 1014.1
20260507082615 21 0.0 0.0 0.00 0.00 0.00 87 1014.0
20260507081615 21 0.0 0.0 0.00 0.00 0.00 88 1013.9
20260507080615 21 0.0 0.0 0.00 0.00 0.00 87 1013.7
20260507075615 21 0.0 0.0 0.00 0.00 0.00 88 1013.8
20260507074615 21 0.0 0.0 0.00 0.00 0.00 88 1013.7
20260507073615 21 0.0 0.0 0.00 0.00 0.00 88 1013.8
20260507072615 21 0.0 0.0 0.00 0.00 0.00 88 1013.7
20260507071615 21 0.0 0.0 0.00 0.00 0.00 88 1013.6
20260507070615 21 0.0 0.0 0.00 0.00 0.00 88 1013.8
20260507065615 21 0.0 0.0 0.00 0.00 0.00 87 1013.9
20260507064615 21 0.0 0.0 0.00 0.00 0.00 87 1014.1
20260507063615 21 0.0 0.0 0.00 0.00 0.00 87 1014.2
20260507062615 21 0.0 0.0 0.00 0.00 0.00 88 1014.3
20260507061615 21 0.0 0.0 0.00 0.00 0.00 88 1014.5
20260507060615 21 0.0 0.0 0.00 0.00 0.00 88 1014.7
20260507055615 21 0.0 0.0 0.00 0.00 0.00 88 1014.6
20260507054615 21 0.0 0.0 0.00 0.00 0.00 89 1014.9
20260507053615 21 0.0 0.0 0.00 0.00 0.00 89 1015.0
20260507052615 21 0.0 0.0 0.00 0.00 0.00 88 1015.1
20260507051615 21 0.0 0.0 0.00 0.00 0.00 89 1015.2
20260507050615 21 0.0 0.0 0.00 0.00 0.00 88 1015.1
20260507045615 21 0.0 0.0 0.00 0.00 0.00 89 1015.2
20260507044615 21 0.0 0.0 0.00 0.00 0.00 88 1015.4
20260507043615 21 0.0 0.0 0.00 0.00 0.00 88 1015.4
20260507042615 21 0.0 0.0 0.00 0.00 0.00 89 1015.6
20260507041615 21 0.0 0.0 0.00 0.00 0.00 88 1015.5
20260507040615 21 0.0 0.0 0.00 0.00 0.00 89 1015.6
20260507035615 21 0.0 0.0 0.00 0.00 0.00 89 1015.8